Time,TemperatureF,DewpointF,PressureIn,WindDirection,WindDirectionDegrees,WindSpeedMPH,WindSpeedGustMPH,Humidity,HourlyPrecipIn,Conditions,Clouds,dailyrainin,SolarRadiationWatts/m^2,SoftwareType,DateUTC
2013-01-01 00:12:00,6.0,2.0,-100.00,SW,219,8.0,9.0,83,0.00,,,0.00,0.000000,,2013-01-01 06:12:00,
2013-01-01 00:22:00,6.0,2.0,-100.00,SW,219,8.0,9.0,83,0.00,,,0.00,0.000000,,2013-01-01 06:22:00,
2013-01-01 00:32:00,6.0,2.0,-100.00,SW,219,8.0,9.0,83,0.00,,,0.00,0.000000,,2013-01-01 06:32:00,
2013-01-01 00:42:00,6.0,2.0,-100.00,SW,219,8.0,9.0,83,0.00,,,0.00,0.000000,,2013-01-01 06:42:00,
2013-01-01 00:52:00,6.0,2.0,-100.00,SW,219,8.0,9.0,83,0.00,,,0.00,0.000000,,2013-01-01 06:52:00,
2013-01-01 01:12:00,8.0,4.0,-100.00,SW,227,7.0,9.0,85,0.00,,,0.00,0.000000,,2013-01-01 07:12:00,
2013-01-01 01:22:00,8.0,4.0,-100.00,SW,227,7.0,9.0,85,0.00,,,0.00,0.000000,,2013-01-01 07:22:00,
2013-01-01 01:32:00,8.0,4.0,-100.00,SW,227,7.0,9.0,85,0.00,,,0.00,0.000000,,2013-01-01 07:32:00,
2013-01-01 01:42:00,8.0,4.0,-100.00,SW,227,7.0,9.0,85,0.00,,,0.00,0.000000,,2013-01-01 07:42:00,
2013-01-01 01:52:00,8.0,4.0,-100.00,SW,227,7.0,9.0,85,0.00,,,0.00,0.000000,,2013-01-01 07:52:00,
2013-01-01 02:22:00,10.0,7.0,-100.00,SW,219,7.0,8.0,86,0.00,,,0.00,0.000000,,2013-01-01 08:22:00,
2013-01-01 02:32:00,10.0,7.0,-100.00,SW,219,7.0,8.0,86,0.00,,,0.00,0.000000,,2013-01-01 08:32:00,
2013-01-01 02:42:00,10.0,7.0,-100.00,SW,219,7.0,8.0,86,0.00,,,0.00,0.000000,,2013-01-01 08:42:00,
2013-01-01 02:53:00,10.0,7.0,-100.00,SW,219,7.0,8.0,86,0.00,,,0.00,0.000000,,2013-01-01 08:53:00,
2013-01-01 03:22:00,11.0,9.0,-100.00,SW,218,8.0,11.0,90,0.00,,,0.00,0.000000,,2013-01-01 09:22:00,
2013-01-01 03:32:00,11.0,9.0,-100.00,SW,218,8.0,11.0,90,0.00,,,0.00,0.000000,,2013-01-01 09:32:00,
2013-01-01 03:42:00,11.0,9.0,-100.00,SW,218,8.0,11.0,90,0.00,,,0.00,0.000000,,2013-01-01 09:42:00,
2013-01-01 03:52:00,11.0,9.0,-100.00,SW,218,8.0,11.0,90,0.00,,,0.00,0.000000,,2013-01-01 09:52:00,
2013-01-01 04:22:00,12.0,10.0,-100.00,SW,222,9.0,13.0,90,0.00,,,0.00,0.000000,,2013-01-01 10:22:00,
2013-01-01 04:33:00,12.0,10.0,-100.00,SW,222,9.0,13.0,90,0.00,,,0.00,0.000000,,2013-01-01 10:33:00,
2013-01-01 04:42:00,12.0,10.0,-100.00,SW,222,9.0,13.0,90,0.00,,,0.00,0.000000,,2013-01-01 10:42:00,
2013-01-01 04:52:00,12.0,10.0,-100.00,SW,222,9.0,13.0,90,0.00,,,0.00,0.000000,,2013-01-01 10:52:00,
2013-01-01 05:22:00,13.0,10.0,-100.00,SW,233,12.0,14.0,88,0.00,,,0.00,0.000000,,2013-01-01 11:22:00,
2013-01-01 05:33:00,13.0,10.0,-100.00,SW,233,12.0,14.0,88,0.00,,,0.00,0.000000,,2013-01-01 11:33:00,
2013-01-01 05:42:00,13.0,10.0,-100.00,SW,233,12.0,14.0,88,0.00,,,0.00,0.000000,,2013-01-01 11:42:00,
2013-01-01 05:53:00,13.0,10.0,-100.00,SW,233,12.0,14.0,88,0.00,,,0.00,0.000000,,2013-01-01 11:53:00,
2013-01-01 06:22:00,15.0,13.0,-100.00,WSW,242,13.0,15.0,90,0.00,,,0.00,0.000000,,2013-01-01 12:22:00,
2013-01-01 06:33:00,15.0,13.0,-100.00,WSW,242,13.0,15.0,90,0.00,,,0.00,0.000000,,2013-01-01 12:33:00,
2013-01-01 06:42:00,15.0,13.0,-100.00,WSW,242,13.0,15.0,90,0.00,,,0.00,0.000000,,2013-01-01 12:42:00,
2013-01-01 06:52:00,15.0,13.0,-100.00,WSW,242,13.0,15.0,90,0.00,,,0.00,0.000000,,2013-01-01 12:52:00,
2013-01-01 07:22:00,16.0,14.0,-100.00,WSW,246,13.0,17.0,91,0.00,,,0.00,0.000000,,2013-01-01 13:22:00,
2013-01-01 07:33:00,16.0,14.0,-100.00,WSW,246,13.0,17.0,91,0.00,,,0.00,0.000000,,2013-01-01 13:33:00,
2013-01-01 07:42:00,16.0,14.0,-100.00,WSW,246,13.0,17.0,91,0.00,,,0.00,0.000000,,2013-01-01 13:42:00,
2013-01-01 07:52:00,16.0,14.0,-100.00,WSW,246,13.0,17.0,91,0.00,,,0.00,0.000000,,2013-01-01 13:52:00,
2013-01-01 08:22:00,16.0,14.0,-100.00,SW,236,9.0,15.0,91,0.00,,,0.00,0.000000,,2013-01-01 14:22:00,
2013-01-01 08:32:00,16.0,14.0,-100.00,SW,236,9.0,15.0,91,0.00,,,0.00,0.000000,,2013-01-01 14:32:00,
2013-01-01 08:42:00,16.0,14.0,-100.00,SW,236,9.0,15.0,91,0.00,,,0.00,0.000000,,2013-01-01 14:42:00,
2013-01-01 08:53:00,16.0,14.0,-100.00,SW,236,9.0,15.0,91,0.00,,,0.00,0.000000,,2013-01-01 14:53:00,
2013-01-01 09:22:00,17.0,15.0,-100.00,WSW,247,11.0,14.0,92,0.00,,,0.00,7.000000,,2013-01-01 15:22:00,
2013-01-01 09:33:00,17.0,15.0,-100.00,WSW,247,11.0,14.0,92,0.00,,,0.00,7.000000,,2013-01-01 15:33:00,
2013-01-01 09:42:00,17.0,15.0,-100.00,WSW,247,11.0,14.0,92,0.00,,,0.00,7.000000,,2013-01-01 15:42:00,
2013-01-01 09:53:00,17.0,15.0,-100.00,WSW,247,11.0,14.0,92,0.00,,,0.00,7.000000,,2013-01-01 15:53:00,
2013-01-01 10:22:00,18.0,16.0,-100.00,West,260,14.0,16.0,92,0.00,,,0.00,39.000000,,2013-01-01 16:22:00,
2013-01-01 10:33:00,18.0,16.0,-100.00,West,260,14.0,16.0,92,0.00,,,0.00,39.000000,,2013-01-01 16:33:00,
2013-01-01 10:42:00,18.0,16.0,-100.00,West,260,14.0,16.0,92,0.00,,,0.00,39.000000,,2013-01-01 16:42:00,
2013-01-01 10:52:00,18.0,16.0,-100.00,West,260,14.0,16.0,92,0.00,,,0.00,39.000000,,2013-01-01 16:52:00,
2013-01-01 11:22:00,18.0,16.0,-100.00,West,261,16.0,18.0,91,0.00,,,0.00,81.000000,,2013-01-01 17:22:00,
2013-01-01 11:33:00,18.0,16.0,-100.00,West,261,16.0,18.0,91,0.00,,,0.00,81.000000,,2013-01-01 17:33:00,
2013-01-01 11:43:00,18.0,16.0,-100.00,West,261,16.0,18.0,91,0.00,,,0.00,81.000000,,2013-01-01 17:43:00,
2013-01-01 11:52:00,18.0,16.0,-100.00,West,261,16.0,18.0,91,0.00,,,0.00,81.000000,,2013-01-01 17:52:00,
2013-01-01 12:22:00,18.0,16.0,-100.00,WSW,255,15.0,19.0,91,0.00,,,0.00,115.000000,,2013-01-01 18:22:00,
2013-01-01 12:33:00,18.0,16.0,-100.00,WSW,255,15.0,19.0,91,0.00,,,0.00,115.000000,,2013-01-01 18:33:00,
2013-01-01 12:42:00,18.0,16.0,-100.00,WSW,255,15.0,19.0,91,0.00,,,0.00,115.000000,,2013-01-01 18:42:00,
2013-01-01 12:52:00,18.0,16.0,-100.00,WSW,255,15.0,19.0,91,0.00,,,0.00,115.000000,,2013-01-01 18:52:00,
2013-01-01 13:22:00,19.0,17.0,-100.00,WSW,248,15.0,19.0,91,0.00,,,0.00,134.000000,,2013-01-01 19:22:00,
2013-01-01 13:33:00,19.0,17.0,-100.00,WSW,248,15.0,19.0,91,0.00,,,0.00,134.000000,,2013-01-01 19:33:00,
2013-01-01 13:42:00,19.0,17.0,-100.00,WSW,248,15.0,19.0,91,0.00,,,0.00,134.000000,,2013-01-01 19:42:00,
2013-01-01 13:52:00,19.0,17.0,-100.00,WSW,248,15.0,19.0,91,0.00,,,0.00,134.000000,,2013-01-01 19:52:00,
2013-01-01 14:23:00,20.0,18.0,-100.00,WSW,242,19.0,23.0,91,0.00,,,0.00,132.000000,,2013-01-01 20:23:00,
2013-01-01 14:32:00,20.0,18.0,-100.00,WSW,242,19.0,23.0,91,0.00,,,0.00,132.000000,,2013-01-01 20:32:00,
2013-01-01 14:42:00,20.0,18.0,-100.00,WSW,242,19.0,23.0,91,0.00,,,0.00,132.000000,,2013-01-01 20:42:00,
2013-01-01 14:52:00,20.0,18.0,-100.00,WSW,242,19.0,23.0,91,0.00,,,0.00,132.000000,,2013-01-01 20:52:00,
2013-01-01 15:22:00,20.0,18.0,-100.00,WSW,251,17.0,22.0,92,0.00,,,0.00,97.000000,,2013-01-01 21:22:00,
2013-01-01 15:33:00,20.0,18.0,-100.00,WSW,251,17.0,22.0,92,0.00,,,0.00,97.000000,,2013-01-01 21:33:00,
2013-01-01 15:42:00,20.0,18.0,-100.00,WSW,251,17.0,22.0,92,0.00,,,0.00,97.000000,,2013-01-01 21:42:00,
2013-01-01 15:52:00,20.0,18.0,-100.00,WSW,251,17.0,22.0,92,0.00,,,0.00,97.000000,,2013-01-01 21:52:00,
2013-01-01 16:22:00,18.0,16.0,-100.00,WSW,244,18.0,24.0,92,0.00,,,0.00,58.000000,,2013-01-01 22:22:00,
2013-01-01 16:33:00,18.0,16.0,-100.00,WSW,244,18.0,24.0,92,0.00,,,0.00,58.000000,,2013-01-01 22:33:00,
2013-01-01 16:42:00,18.0,16.0,-100.00,WSW,244,18.0,24.0,92,0.00,,,0.00,58.000000,,2013-01-01 22:42:00,
2013-01-01 16:52:00,18.0,16.0,-100.00,WSW,244,18.0,24.0,92,0.00,,,0.00,58.000000,,2013-01-01 22:52:00,
2013-01-01 17:22:00,17.0,15.0,-100.00,WSW,241,16.0,22.0,92,0.00,,,0.00,18.000000,,2013-01-01 23:22:00,
2013-01-01 17:32:00,17.0,15.0,-100.00,WSW,241,16.0,22.0,92,0.00,,,0.00,18.000000,,2013-01-01 23:32:00,
2013-01-01 17:42:00,17.0,15.0,-100.00,WSW,241,16.0,22.0,92,0.00,,,0.00,18.000000,,2013-01-01 23:42:00,
2013-01-01 17:52:00,17.0,15.0,-100.00,WSW,241,16.0,22.0,92,0.00,,,0.00,18.000000,,2013-01-01 23:52:00,
2013-01-01 18:22:00,15.0,13.0,-100.00,WSW,246,13.0,22.0,91,0.00,,,-99.99,0.000000,,2013-01-02 00:22:00,
2013-01-01 18:32:00,15.0,13.0,-100.00,WSW,246,13.0,22.0,91,0.00,,,-99.99,0.000000,,2013-01-02 00:32:00,
2013-01-01 18:42:00,15.0,13.0,-100.00,WSW,246,13.0,22.0,91,0.00,,,-99.99,0.000000,,2013-01-02 00:42:00,
2013-01-01 18:52:00,15.0,13.0,-100.00,WSW,246,13.0,22.0,91,0.00,,,-99.99,0.000000,,2013-01-02 00:52:00,
2013-01-01 19:22:00,13.0,10.0,-100.00,SW,234,11.0,18.0,89,0.00,,,0.00,0.000000,,2013-01-02 01:22:00,
2013-01-01 19:32:00,13.0,10.0,-100.00,SW,234,11.0,18.0,89,0.00,,,0.00,0.000000,,2013-01-02 01:32:00,
2013-01-01 19:42:00,13.0,10.0,-100.00,SW,234,11.0,18.0,89,0.00,,,0.00,0.000000,,2013-01-02 01:42:00,
2013-01-01 19:52:00,13.0,10.0,-100.00,SW,234,11.0,18.0,89,0.00,,,0.00,0.000000,,2013-01-02 01:52:00,
2013-01-01 20:22:00,10.0,7.0,-100.00,SW,226,9.0,12.0,86,0.00,,,0.00,0.000000,,2013-01-02 02:22:00,
2013-01-01 20:32:00,10.0,7.0,-100.00,SW,226,9.0,12.0,86,0.00,,,0.00,0.000000,,2013-01-02 02:32:00,
2013-01-01 20:42:00,10.0,7.0,-100.00,SW,226,9.0,12.0,86,0.00,,,0.00,0.000000,,2013-01-02 02:42:00,
2013-01-01 20:52:00,10.0,7.0,-100.00,SW,226,9.0,12.0,86,0.00,,,0.00,0.000000,,2013-01-02 02:52:00,
2013-01-01 21:22:00,9.0,6.0,-100.00,SW,234,10.0,12.0,86,0.00,,,0.00,0.000000,,2013-01-02 03:22:00,
2013-01-01 21:32:00,9.0,6.0,-100.00,SW,234,10.0,12.0,86,0.00,,,0.00,0.000000,,2013-01-02 03:32:00,
2013-01-01 21:42:00,9.0,6.0,-100.00,SW,234,10.0,12.0,86,0.00,,,0.00,0.000000,,2013-01-02 03:42:00,
2013-01-01 21:52:00,9.0,6.0,-100.00,SW,234,10.0,12.0,86,0.00,,,0.00,0.000000,,2013-01-02 03:52:00,
2013-01-01 22:22:00,8.0,4.0,-100.00,WSW,243,9.0,11.0,85,0.00,,,0.00,0.000000,,2013-01-02 04:22:00,
2013-01-01 22:32:00,8.0,4.0,-100.00,WSW,243,9.0,11.0,85,0.00,,,0.00,0.000000,,2013-01-02 04:32:00,
2013-01-01 22:42:00,8.0,4.0,-100.00,WSW,243,9.0,11.0,85,0.00,,,0.00,0.000000,,2013-01-02 04:42:00,
2013-01-01 22:52:00,8.0,4.0,-100.00,WSW,243,9.0,11.0,85,0.00,,,0.00,0.000000,,2013-01-02 04:52:00,
2013-01-01 23:22:00,10.0,7.0,-100.00,SW,236,9.0,13.0,87,0.00,,,0.00,0.000000,,2013-01-02 05:22:00,
2013-01-01 23:33:00,10.0,7.0,-100.00,SW,236,9.0,13.0,87,0.00,,,0.00,0.000000,,2013-01-02 05:33:00,
2013-01-01 23:42:00,10.0,7.0,-100.00,SW,236,9.0,13.0,87,0.00,,,0.00,0.000000,,2013-01-02 05:42:00,
2013-01-01 23:52:00,10.0,7.0,-100.00,SW,236,9.0,13.0,87,0.00,,,0.00,0.000000,,2013-01-02 05:52:00,